Погода в Канадзаве

Япония     36°30′24″N   136°42′23″E
темп.,
°C
ветер,
м/с
пор.,
м/с
влажн.,
%
обл.,
%
осадки,
мм/ч
давл.,
гПа
погр.,
м
21 апреля, ср
ср2100:00+11з1183100 0.0 1023159
03:00+10ююв11870 0.0 102319
06:00+9юв22770 0.0 102449
09:00+15с22420 0.0 1024650
12:00+18св23300 0.0 10231158
15:00+18ссв33240 0.0 10221312
18:00+14св23410 0.0 1023274
21:00+10юв22430 0.0 102453
22 апреля, чт
чт2200:00+9юв22405 0.0 102432
03:00+8юв224210 0.0 102330
06:00+9юв224199 0.0 102334
09:00+15всв2329100 0.0 1022450
12:00+19св4725100 0.0 10211160
15:00+17всв5826100 0.0 1021987
18:00+12всв364515 0.0 1021377
21:00+9в35545 0.0 1022199
23 апреля, пт
пт2300:00+8в35694 0.0 1023204
03:00+6в35761 0.0 1022161
06:00+6в34695 0.0 1022164
09:00+13ссв224397 0.0 1022499
12:00+16с2237100 0.0 1021966
15:00+16с3239100 0.0 10211034
18:00+11всв2356100 0.0 1023220
21:00+9в2369100 0.0 1023130
24 апреля, сб
сб2400:00+8вюв2266100 0.0 102171
03:00+9ю2155100 0.0 102119
06:00+10ю1161100 0.0 102122
09:00+15сз2255100 0.0 1021583
12:00+16сз3360100 0.0 10201007
15:00+17з2362100 0.0 1019980
18:00+14зсз1274100 0.0 1018163
21:00+11з2283100 0.0 1018148
25 апреля, вс
вс2500:00+10ююз1386100 0.0 101894
03:00+9сз1281100 0.4 1019249
06:00+9ююв2376100 0.1 1018116
09:00+12сз3252100 0.1 10181115
12:00+14сз444922 0.0 10171320
15:00+13сз336192 0.1 10171426
18:00+10всв238282 0.2 1019579
21:00+7в248919 0.2 1021262